2024-173H

Last updated on Fri Oct 04 2024 00:02:05 GMT+0000 (Coordinated Universal Time)

1 61234U 24173H 24277.53273744 .00067111 00000+0 26440-2 0 9993 2 61234 97.4066 350.2484 0011557 245.0391 114.9646 15.25278145 1382
UTC large
Height (km)
Speed (km/s)
/
Latitude / Longitude
Inclination (degrees)
Orbital Period (minutes)
Azimuth
Elevation
Range (km)
Doppler Factor

Next 0 passes for location: London (51.5072 / 0.1276)

Sorry there are no passes over London.